Printer-friendly version

IAU Minor Planet Center

Minor Planet Center

(92) Undina

Orbital Elements

The following orbital elements are taken from MPO 2601
   (92) Undina
Epoch 2005 Jan. 30.0 TT = JDT 2453400.5                 Williams
M 356.10850              (2000.0)            P               Q
n   0.17295252     Peri.  242.35928     +0.94926708     +0.26544296
a   3.1904464      Node   101.84357     -0.19155254     +0.91331735
e   0.1002389      Incl.    9.92074     -0.24939856     +0.30885506
P   5.70           H    6.61          G   0.15           U   0
From 300 observations at 58 oppositions, 1871-1999, mean residual 0".92.
An explanation of the orbital elements is available.

These orbital elements are also available in forms suitable for loading into a number of popular planetarium-type software programs.


Ephemeris

The following ephemeris is at intervals of five days. A daily ephemeris covering the same time interval is also available.

Personalized ephemerides for this object (and others) can be generated using the MPES.

Date    TT    R. A. (2000) Decl.     Delta      r     Elong.  Phase     V
 
2005 08 19    02 51.01   +04 27.5    2.510    2.926   104.1    19.6    11.9
2005 08 24    02 53.34   +04 22.4    2.450    2.929   108.2    19.1    11.9
2005 08 29    02 55.18   +04 14.8    2.392    2.932   112.5    18.6    11.8
2005 09 03    02 56.49   +04 04.8    2.337    2.935   117.0    17.8    11.7
2005 09 08    02 57.24   +03 52.5    2.283    2.938   121.5    17.0    11.6
2005 09 13    02 57.41   +03 38.3    2.233    2.941   126.2    16.0    11.6
2005 09 18    02 57.01   +03 22.3    2.186    2.945   131.0    14.9    11.5
2005 09 23    02 56.04   +03 04.8    2.144    2.948   135.9    13.7    11.4
2005 09 28    02 54.49   +02 46.2    2.105    2.951   140.9    12.4    11.3
2005 10 03    02 52.39   +02 26.8    2.072    2.955   145.9    10.9    11.2
2005 10 08    02 49.78   +02 07.3    2.045    2.959   151.0     9.4    11.1
2005 10 13    02 46.72   +01 48.1    2.023    2.962   155.8     7.9    11.1
2005 10 18    02 43.29   +01 29.8    2.008    2.966   160.4     6.5    11.0
2005 10 23    02 39.57   +01 13.1    2.000    2.970   164.1     5.3    10.9
2005 10 28    02 35.66   +00 58.4    1.999    2.973   166.3     4.5    10.9
2005 11 02    02 31.66   +00 46.3    2.004    2.977   166.1     4.6    10.9
2005 11 07    02 27.69   +00 37.2    2.017    2.981   163.6     5.4    10.9
2005 11 12    02 23.86   +00 31.7    2.037    2.985   159.6     6.6    11.0
2005 11 17    02 20.27   +00 29.8    2.064    2.989   155.0     8.0    11.1
2005 11 22    02 17.00   +00 31.7    2.097    2.993   150.0     9.5    11.2
2005 11 27    02 14.13   +00 37.4    2.136    2.997   144.9    10.9    11.3
2005 12 02    02 11.71   +00 47.0    2.181    3.001   139.7    12.3    11.4
2005 12 07    02 09.81   +01 00.3    2.231    3.005   134.6    13.5    11.5
2005 12 12    02 08.45   +01 17.1    2.286    3.010   129.5    14.6    11.6
2005 12 17    02 07.63   +01 37.2    2.345    3.014   124.6    15.6    11.7
2005 12 22    02 07.37   +02 00.2    2.407    3.018   119.7    16.4    11.8
2005 12 27    02 07.65   +02 26.0    2.473    3.022   114.9    17.2    11.9

Back to Bright Minor Planets

Astronomical Headlines Index

MPC


Valid HTML 4.01!